TimeEDT,TemperatureF,Dew PointF,Humidity,Sea Level PressureIn,VisibilityMPH,Wind Direction,Wind SpeedMPH,Gust SpeedMPH,PrecipitationIn,Events,Conditions,WindDirDegrees,DateUTC
12:15 AM,31.8,24.1,73,30.05,10.0,WNW,4.6,-,N/A,,Overcast,290,2013-03-17 04:15:00
12:35 AM,31.6,23.9,73,30.05,10.0,West,4.6,-,N/A,,Overcast,280,2013-03-17 04:35:00
12:55 AM,31.1,23.5,74,30.06,10.0,West,6.9,-,N/A,,Overcast,280,2013-03-17 04:55:00
1:15 AM,31.1,22.8,71,30.06,10.0,West,4.6,-,N/A,,Overcast,270,2013-03-17 05:15:00
1:35 AM,31.1,22.3,70,30.05,10.0,Calm,Calm,-,N/A,,Overcast,0,2013-03-17 05:35:00
1:55 AM,30.9,23.0,72,30.05,10.0,Calm,Calm,-,N/A,,Overcast,0,2013-03-17 05:55:00
2:15 AM,30.9,23.0,72,30.06,10.0,Calm,Calm,-,N/A,,Overcast,0,2013-03-17 06:15:00
2:35 AM,30.9,23.0,72,30.07,10.0,WSW,3.5,-,N/A,,Overcast,240,2013-03-17 06:35:00
2:55 AM,30.9,23.0,72,30.07,10.0,Calm,Calm,-,N/A,,Overcast,0,2013-03-17 06:55:00
3:15 AM,31.3,23.9,74,30.07,10.0,Calm,Calm,-,N/A,,Overcast,0,2013-03-17 07:15:00
3:35 AM,31.5,23.9,74,30.08,10.0,West,5.8,-,N/A,,Overcast,280,2013-03-17 07:35:00
3:55 AM,31.3,23.7,74,30.09,10.0,NNW,10.4,-,N/A,,Overcast,330,2013-03-17 07:55:00
4:15 AM,29.3,21.2,72,30.10,10.0,NNW,10.4,16.1,N/A,,Overcast,340,2013-03-17 08:15:00
4:35 AM,28.0,19.4,70,30.10,10.0,NNW,10.4,17.3,N/A,,Mostly Cloudy,340,2013-03-17 08:35:00
4:55 AM,27.5,18.3,68,30.10,10.0,NW,10.4,18.4,N/A,,Scattered Clouds,320,2013-03-17 08:55:00
5:15 AM,27.1,18.3,69,30.10,10.0,NW,8.1,16.1,N/A,,Clear,320,2013-03-17 09:15:00
5:35 AM,26.6,18.3,71,30.11,10.0,NNW,6.9,-,N/A,,Clear,330,2013-03-17 09:35:00
5:55 AM,26.4,18.3,71,30.12,10.0,NNW,4.6,-,N/A,,Clear,330,2013-03-17 09:55:00
6:35 AM,26.1,17.6,70,30.13,10.0,North,4.6,-,N/A,,Clear,350,2013-03-17 10:35:00
6:55 AM,25.5,18.1,74,30.14,10.0,NNW,3.5,-,N/A,,Clear,340,2013-03-17 10:55:00
7:15 AM,25.5,18.1,74,30.15,10.0,Calm,Calm,-,N/A,,Clear,0,2013-03-17 11:15:00
7:35 AM,25.0,18.0,75,30.16,10.0,Calm,Calm,-,N/A,,Clear,0,2013-03-17 11:35:00
7:55 AM,25.5,18.1,74,30.17,10.0,Calm,Calm,-,N/A,,Clear,0,2013-03-17 11:55:00
8:15 AM,24.8,18.5,77,30.18,10.0,North,3.5,-,N/A,,Clear,350,2013-03-17 12:15:00
8:35 AM,25.5,18.5,75,30.18,10.0,North,4.6,-,N/A,,Clear,350,2013-03-17 12:35:00
8:55 AM,26.4,18.3,71,30.20,10.0,North,8.1,-,N/A,,Clear,360,2013-03-17 12:55:00
9:15 AM,26.4,18.0,70,30.21,10.0,North,9.2,16.1,N/A,,Clear,360,2013-03-17 13:15:00
9:35 AM,26.6,17.8,69,30.22,10.0,North,5.8,-,N/A,,Clear,360,2013-03-17 13:35:00
9:55 AM,27.1,18.1,69,30.23,10.0,NNE,10.4,-,N/A,,Clear,20,2013-03-17 13:55:00
10:15 AM,27.1,17.8,68,30.23,10.0,NNE,9.2,-,N/A,,Clear,20,2013-03-17 14:15:00
10:35 AM,28.0,18.3,67,30.23,10.0,NNE,10.4,-,N/A,,Clear,20,2013-03-17 14:35:00
10:55 AM,28.9,18.3,65,30.24,10.0,NNE,8.1,-,N/A,,Clear,30,2013-03-17 14:55:00
11:15 AM,29.1,18.0,63,30.23,10.0,ENE,6.9,-,N/A,,Clear,60,2013-03-17 15:15:00
11:35 AM,29.5,17.2,60,30.23,10.0,East,4.6,16.1,N/A,,Clear,80,2013-03-17 15:35:00
11:55 AM,29.8,16.0,56,30.23,10.0,North,8.1,17.3,N/A,,Clear,10,2013-03-17 15:55:00
12:15 PM,30.9,16.2,54,30.24,10.0,NE,11.5,-,N/A,,Clear,40,2013-03-17 16:15:00
12:35 PM,30.7,15.1,52,30.24,10.0,NNE,11.5,-,N/A,,Clear,20,2013-03-17 16:35:00
12:55 PM,31.1,15.6,53,30.24,10.0,ENE,8.1,-,N/A,,Clear,60,2013-03-17 16:55:00
1:15 PM,31.6,16.5,54,30.24,10.0,NNE,10.4,-,N/A,,Clear,20,2013-03-17 17:15:00
1:35 PM,32.0,16.3,52,30.24,10.0,NE,9.2,-,N/A,,Clear,40,2013-03-17 17:35:00
1:55 PM,31.8,15.3,50,30.23,10.0,East,10.4,16.1,N/A,,Clear,90,2013-03-17 17:55:00
2:15 PM,32.0,17.1,54,30.23,10.0,ENE,10.4,17.3,N/A,,Scattered Clouds,70,2013-03-17 18:15:00
2:35 PM,32.0,16.3,52,30.23,10.0,East,9.2,16.1,N/A,,Clear,100,2013-03-17 18:35:00
2:55 PM,31.6,16.9,54,30.23,10.0,ENE,13.8,17.3,N/A,,Clear,60,2013-03-17 18:55:00
3:15 PM,32.0,17.8,56,30.22,10.0,East,8.1,16.1,N/A,,Clear,80,2013-03-17 19:15:00
3:35 PM,32.0,17.4,55,30.22,10.0,East,10.4,16.1,N/A,,Scattered Clouds,90,2013-03-17 19:35:00
3:55 PM,30.9,18.5,60,30.22,10.0,East,8.1,16.1,N/A,,Mostly Cloudy,80,2013-03-17 19:55:00
4:15 PM,30.7,19.4,63,30.22,10.0,East,9.2,-,N/A,,Overcast,80,2013-03-17 20:15:00
4:35 PM,30.6,19.0,62,30.22,10.0,East,8.1,-,N/A,,Overcast,100,2013-03-17 20:35:00
4:55 PM,30.6,19.0,62,30.21,10.0,East,5.8,-,N/A,,Overcast,100,2013-03-17 20:55:00
5:15 PM,30.2,19.2,64,30.21,10.0,East,10.4,16.1,N/A,,Overcast,90,2013-03-17 21:15:00
5:35 PM,30.2,17.6,60,30.21,10.0,ENE,10.4,-,N/A,,Overcast,70,2013-03-17 21:35:00
5:55 PM,30.2,18.3,61,30.20,10.0,ENE,9.2,-,N/A,,Overcast,70,2013-03-17 21:55:00
6:15 PM,30.2,18.5,62,30.20,10.0,East,10.4,-,N/A,,Overcast,90,2013-03-17 22:15:00
6:35 PM,30.0,19.2,64,30.20,10.0,East,9.2,-,N/A,,Overcast,90,2013-03-17 22:35:00
6:55 PM,30.0,18.5,62,30.20,10.0,East,9.2,-,N/A,,Overcast,100,2013-03-17 22:55:00
7:15 PM,29.7,17.6,61,30.20,10.0,East,9.2,17.3,N/A,,Overcast,100,2013-03-17 23:15:00
7:35 PM,29.3,18.3,64,30.20,10.0,ENE,8.1,-,N/A,,Overcast,70,2013-03-17 23:35:00
7:55 PM,29.3,18.0,63,30.21,10.0,East,12.7,-,N/A,,Overcast,90,2013-03-17 23:55:00
8:15 PM,29.3,17.8,62,30.22,10.0,East,8.1,-,N/A,,Overcast,80,2013-03-18 00:15:00
8:35 PM,28.9,17.6,63,30.22,10.0,East,5.8,16.1,N/A,,Mostly Cloudy,90,2013-03-18 00:35:00
8:55 PM,28.9,18.1,64,30.22,10.0,ENE,6.9,-,N/A,,Mostly Cloudy,60,2013-03-18 00:55:00
9:15 PM,28.8,17.6,63,30.21,10.0,ENE,5.8,-,N/A,,Scattered Clouds,70,2013-03-18 01:15:00
9:35 PM,29.1,19.2,67,30.22,10.0,East,6.9,-,N/A,,Scattered Clouds,90,2013-03-18 01:35:00
9:55 PM,29.1,19.2,67,30.21,10.0,East,12.7,18.4,N/A,,Scattered Clouds,90,2013-03-18 01:55:00
10:15 PM,29.1,19.4,67,30.20,10.0,East,8.1,-,N/A,,Scattered Clouds,90,2013-03-18 02:15:00
10:35 PM,28.9,19.0,67,30.20,10.0,East,6.9,-,N/A,,Scattered Clouds,100,2013-03-18 02:35:00
10:55 PM,28.8,19.0,67,30.18,10.0,East,6.9,-,N/A,,Clear,80,2013-03-18 02:55:00
11:15 PM,28.9,19.4,68,30.17,10.0,East,11.5,20.7,N/A,,Clear,90,2013-03-18 03:15:00
11:35 PM,28.9,19.4,68,30.16,10.0,East,9.2,-,N/A,,Clear,80,2013-03-18 03:35:00
11:55 PM,28.9,19.9,69,30.15,10.0,East,10.4,-,N/A,,Clear,80,2013-03-18 03:55:00